Date String (YYYY-MM-DD hh:mm:ss) UTC,Instrument flags,Ambient pressure (hPa),Sample flow (lpm),Bypass flow (lpm),Sample temperature (°C),Ambient temperature (°C),ASC tube jacket temperature (°C),LED temperature (°C),Box temperature (°C),Sample RH (%),Span deviation,Mass concentration (μg/m³),Mass concentration (μg/m³),Mass concentration (μg/m³)
DateTimeUTC,F1_M11,P_M11,Q1_M11,Q2_M11,T1_M11,T2_M11,T3_M11,T4_M11,T5_M11,U1_M11,ZSPAN_M11,X0_M11,X2_M11,X1_M11
2022-01-21 14:00:00,,0824.2,4.99,0.00,22.6,23.2,00.0,31.3,24.5,13.7,-001.6,0016.36,0008.89,0008.12
2022-01-21 14:01:00,,0824.2,5.01,0.00,22.6,23.0,00.0,31.4,24.5,13.6,-001.8,0016.65,0009.24,0008.47
2022-01-21 14:02:00,,0824.1,5.00,0.00,22.6,22.8,00.0,31.4,24.5,13.5,-001.9,0018.22,0009.61,0008.80
2022-01-21 14:03:00,,0824.2,4.99,0.00,22.6,22.6,00.0,31.4,24.4,13.5,-002.0,0018.76,0009.95,0009.14
2022-01-21 14:04:00,,0824.2,5.00,0.00,22.6,22.4,00.0,31.4,24.4,13.5,-002.0,0019.17,0010.30,0009.47
2022-01-21 14:05:00,,0824.3,5.02,0.00,22.6,22.3,00.0,31.4,24.3,13.5,-002.1,0019.79,0010.58,0009.77
2022-01-21 14:06:00,,0824.2,4.99,0.00,22.5,22.2,00.0,31.4,24.3,13.4,-002.2,0020.69,0010.88,0010.01
2022-01-21 14:07:00,,0824.2,5.01,0.00,22.5,22.1,00.0,31.4,24.3,13.4,-002.2,0020.75,0011.08,0010.19
2022-01-21 14:08:00,,0824.3,5.01,0.00,22.5,22.0,00.0,31.4,24.2,13.4,-002.2,0020.74,0011.22,0010.33
2022-01-21 14:09:00,,0824.3,5.01,0.00,22.5,22.0,00.0,31.4,24.2,13.4,-002.2,0020.54,0011.27,0010.40
2022-01-21 14:10:00,,0824.3,5.00,0.00,22.4,21.9,00.0,31.4,24.2,13.4,-002.0,0019.24,0011.25,0010.41
2022-01-21 14:11:00,,0824.3,5.00,0.00,22.4,21.8,00.0,31.4,24.1,13.4,-002.2,0018.48,0011.20,0010.44
2022-01-21 14:12:00,,0824.3,5.02,0.00,22.4,21.8,00.0,31.4,24.1,13.4,-002.2,0018.21,0011.12,0010.45
2022-01-21 14:13:00,,0824.3,4.98,0.00,22.4,21.7,00.0,31.4,24.1,13.4,-002.0,0016.79,0010.93,0010.34
2022-01-21 14:14:00,,0824.3,5.01,0.00,22.4,21.7,00.0,31.4,24.1,13.5,-001.9,0016.50,0010.82,0010.25
2022-01-21 14:15:00,,0824.3,5.00,0.00,22.3,21.7,00.0,31.4,24.0,13.5,-001.8,0016.04,0010.68,0010.17
2022-01-21 14:16:00,,0824.3,5.00,0.00,22.3,21.6,00.0,31.4,24.0,13.5,-001.7,0015.58,0010.56,0010.07
2022-01-21 14:17:00,,0824.3,5.00,0.00,22.3,21.6,00.0,31.4,24.0,13.5,-001.5,0014.50,0010.40,0009.98
2022-01-21 14:18:00,,0824.3,5.00,0.00,22.3,21.6,00.0,31.3,24.0,13.6,-001.5,0014.55,0010.16,0009.80
2022-01-21 14:19:00,,0824.3,5.01,0.00,22.3,21.6,00.0,31.3,24.0,13.7,-001.6,0014.19,0009.87,0009.59
2022-01-21 14:20:00,,0824.3,5.00,0.00,22.2,21.6,00.0,31.3,24.0,13.8,-001.7,0014.51,0009.58,0009.31
2022-01-21 14:21:00,,0824.3,5.02,0.00,22.2,21.7,00.0,31.3,24.0,13.9,-001.7,0014.80,0009.28,0008.98
2022-01-21 14:22:00,,0824.4,4.99,0.00,22.3,22.4,00.0,31.3,24.1,13.9,-001.6,0014.54,0008.93,0008.62
2022-01-21 14:23:00,,0824.4,5.01,0.00,22.5,23.1,00.0,31.4,24.4,13.8,-001.7,0014.86,0008.70,0008.35
2022-01-21 14:24:00,,0824.4,5.00,0.00,22.6,23.3,00.0,31.4,24.6,13.8,-001.8,0014.84,0008.57,0008.19
2022-01-21 14:25:00,,0824.4,5.00,0.00,22.6,23.1,00.0,31.4,24.6,13.8,-001.7,0014.33,0008.30,0007.92
2022-01-21 14:26:00,,0824.4,5.01,0.00,22.6,22.8,00.0,31.4,24.5,13.8,-002.0,0014.37,0008.26,0007.83
2022-01-21 14:27:00,,0824.4,5.00,0.00,22.6,22.6,00.0,31.4,24.4,13.8,-002.3,0014.44,0008.25,0007.80
2022-01-21 14:28:00,,0824.4,4.99,0.00,22.6,22.4,00.0,31.4,24.3,13.9,-002.5,0014.21,0008.04,0007.56
2022-01-21 14:29:00,,0824.3,5.00,0.00,22.5,22.3,00.0,31.4,24.3,14.0,-002.5,0013.60,0007.75,0007.27
2022-01-21 14:30:00,,0824.4,5.00,0.00,22.5,22.2,00.0,31.5,24.2,14.1,-002.4,0013.05,0007.46,0007.00
2022-01-21 14:31:00,,0824.4,5.00,0.00,22.5,22.1,00.0,31.5,24.2,14.2,-002.4,0012.58,0007.39,0006.89
2022-01-21 14:32:00,,0824.4,4.99,0.00,22.5,22.0,00.0,31.4,24.2,14.2,-002.2,0012.28,0007.32,0006.83
2022-01-21 14:33:00,,0824.4,5.01,0.00,22.4,21.9,00.0,31.4,24.1,14.3,-001.9,0012.22,0007.27,0006.80
2022-01-21 14:34:00,,0824.4,5.00,0.00,22.4,21.8,00.0,31.4,24.1,14.3,-001.6,0012.06,0007.21,0006.73
2022-01-21 14:35:00,,0824.4,5.00,0.00,22.4,21.8,00.0,31.4,24.1,14.4,-001.5,0011.36,0006.98,0006.54
2022-01-21 14:36:00,,0824.4,5.01,0.00,22.4,21.7,00.0,31.4,24.1,14.5,-001.6,0011.22,0006.89,0006.46
2022-01-21 14:37:00,,0824.4,4.98,0.00,22.3,21.7,00.0,31.4,24.1,14.5,-001.7,0010.71,0006.59,0006.21
2022-01-21 14:38:00,,0824.4,5.01,0.00,22.3,21.6,00.0,31.4,24.0,14.6,-001.6,0010.02,0006.06,0005.73
2022-01-21 14:39:00,,0824.4,4.99,0.00,22.3,21.6,00.0,31.4,24.0,14.6,-001.6,0009.76,0005.89,0005.59
2022-01-21 14:40:00,,0824.5,5.02,0.00,22.3,21.6,00.0,31.4,23.9,14.6,-001.4,0009.64,0005.79,0005.49
2022-01-21 14:41:00,,0824.4,4.99,0.00,22.2,21.5,00.0,31.3,23.9,14.7,-001.6,0009.51,0005.67,0005.37
2022-01-21 14:42:00,,0824.4,5.01,0.00,22.2,21.5,00.0,31.3,23.9,14.8,-001.4,0009.18,0005.37,0005.10
2022-01-21 14:43:00,,0824.4,4.99,0.00,22.2,21.5,00.0,31.3,23.9,14.9,-001.4,0008.36,0005.01,0004.78
2022-01-21 14:44:00,,0824.5,5.02,0.00,22.3,22.0,00.0,31.3,24.0,14.9,-001.6,0007.52,0004.72,0004.51
2022-01-21 14:45:00,,0824.5,5.00,0.00,22.4,22.8,00.0,31.3,24.3,14.8,-002.2,0006.78,0004.42,0004.23
2022-01-21 14:46:00,,0824.6,4.98,0.00,22.5,23.3,00.0,31.4,24.5,14.7,-002.2,0006.63,0004.28,0004.11
2022-01-21 14:47:00,,0824.6,5.00,0.00,22.6,23.1,00.0,31.4,24.5,14.6,-002.4,0007.08,0004.10,0003.95
2022-01-21 14:48:00,,0824.6,5.01,0.00,22.6,22.9,00.0,31.4,24.4,14.6,-002.2,0007.25,0004.08,0003.89
2022-01-21 14:49:00,,0824.6,5.01,0.00,22.6,22.6,00.0,31.4,24.4,14.6,-002.1,0007.51,0004.16,0003.95
2022-01-21 14:50:00,,0824.6,5.00,0.00,22.5,22.4,00.0,31.4,24.3,14.7,-001.7,0007.73,0004.19,0003.93
2022-01-21 14:51:00,,0824.6,4.99,0.00,22.5,22.2,00.0,31.4,24.2,14.7,-001.6,0007.88,0004.20,0003.91
2022-01-21 14:52:00,,0824.6,4.99,0.00,22.5,22.1,00.0,31.4,24.2,14.7,-001.3,0007.98,0004.19,0003.91
2022-01-21 14:53:00,,0824.6,5.01,0.00,22.4,22.0,00.0,31.4,24.1,14.7,-001.4,0008.01,0004.22,0003.91
2022-01-21 14:54:00,,0824.6,4.98,0.00,22.4,21.9,00.0,31.4,24.1,14.7,-001.4,0007.97,0004.21,0003.91
2022-01-21 14:55:00,,0824.6,5.02,0.00,22.4,21.8,00.0,31.4,24.0,14.7,-001.5,0007.95,0004.19,0003.89
2022-01-21 14:56:00,,0824.8,5.00,0.00,22.3,21.7,00.0,31.4,24.0,14.8,-001.3,0007.98,0004.19,0003.87
2022-01-21 14:57:00,,0824.6,4.99,0.00,22.3,21.7,00.0,31.4,24.0,14.9,-001.0,0007.80,0004.10,0003.77
2022-01-21 14:58:00,,0824.6,5.00,0.00,22.3,21.6,00.0,31.4,23.9,14.9,-001.1,0007.02,0003.99,0003.66
2022-01-21 14:59:00,,0824.7,4.99,0.00,22.2,21.6,00.0,31.4,23.9,14.9,-001.4,0006.36,0003.78,0003.50
